Weather History for Winnsboro, SC

Change the Weather History Date:

Monday, October 29, 2012

  Actual Average Record
Temperature  
Mean Temperature 52 °F -  
Max Temperature 62 °F 71 °F 73 °F (2013)
Min Temperature 42 °F 46 °F 42 °F (2012)
Degree Days  
Heating Degree Days 13    
Growing Degree Days 2 (Base 50)    
Moisture  
Dew Point 36 °F    
Average Humidity 57    
Maximum Humidity 81    
Minimum Humidity 36    
Precipitation  
Precipitation 0.00 in - - ()
Sea Level Pressure  
Sea Level Pressure 29.65 in    
Wind  
Wind Speed 9 mph (NW)    
Max Wind Speed 23 mph    
Max Gust Speed 30 mph    
Visibility 10 miles    
Events      
Averages and records for this station are not official NWS values.
T = Trace of Precipitation, MM = Missing Value Source: NWS Daily Summary

Daily Weather History Graph

Daily Weather History Graph

Search for Another Location

Airport:

Trip Planner

Search our weather history database for the weather conditions in past years. The results will help you decide how hot, cold, wet, or windy it might be!

Date:

Astronomy

Oct. 29, 2012 Rise Set
Actual Time 7:42 AM EDT 6:33 PM EDT
Civil Twilight 7:16 AM EDT 6:59 PM EDT
Nautical Twilight 6:46 AM EDT 7:28 PM EDT
Astronomical Twilight 6:17 AM EDT 7:58 PM EDT
Moon 6:26 PM EDT (10/29) 7:30 AM EDT (10/29)
Length of Visible Light 11h 43m
Length of Day
10h 51m
Full, 100% of the Moon is Illuminated
Oct 29
Full
Oct 29
Full
Nov 6
Last Quarter
Nov 13
New
Nov 20
First Quarter

Hourly Weather History & Observations

Time (EDT) Temp. Windchill Dew Point Humidity Pressure Visibility Wind Dir Wind Speed Gust Speed Precip Events Conditions
12:35 AM 53.6 °F - 42.8 °F 67% 29.70 in 10.0 mi NW 6.9 mph - N/A   Overcast
12:55 AM 53.6 °F - 41.0 °F 62% 29.70 in 10.0 mi NW 8.1 mph - N/A   Overcast
1:35 AM 53.6 °F - 39.2 °F 58% 29.70 in 10.0 mi NW 12.7 mph 18.4 mph N/A   Mostly Cloudy
2:15 AM 51.8 °F - 37.4 °F 58% 29.70 in 10.0 mi NW 10.4 mph 17.3 mph N/A   Clear
2:35 AM 50.0 °F - 37.4 °F 62% 29.70 in 10.0 mi NW 8.1 mph - N/A   Clear
2:55 AM 50.0 °F - 37.4 °F 62% 29.70 in 10.0 mi NW 6.9 mph - N/A   Clear
3:15 AM 48.2 °F - 37.4 °F 66% 29.70 in 10.0 mi NW 5.8 mph - N/A   Clear
3:35 AM 48.2 °F - 37.4 °F 66% 29.70 in 10.0 mi NW 4.6 mph - N/A   Clear
3:55 AM 46.4 °F 42.9 °F 37.4 °F 71% 29.70 in 10.0 mi WNW 6.9 mph - N/A   Clear
4:15 AM 46.4 °F 43.5 °F 39.2 °F 76% 29.69 in 10.0 mi WNW 5.8 mph - N/A   Clear
4:35 AM 46.4 °F 42.9 °F 39.2 °F 76% 29.69 in 10.0 mi NW 6.9 mph - N/A   Clear
4:55 AM 44.6 °F 41.4 °F 39.2 °F 81% 29.68 in 10.0 mi WNW 5.8 mph - N/A   Clear
5:15 AM 44.6 °F 42.2 °F 39.2 °F 81% 29.68 in 10.0 mi NW 4.6 mph - N/A   Clear
5:35 AM 44.6 °F 41.4 °F 39.2 °F 81% 29.68 in 10.0 mi NW 5.8 mph - N/A   Clear
5:55 AM 44.6 °F 42.2 °F 39.2 °F 81% 29.68 in 10.0 mi WNW 4.6 mph - N/A   Clear
6:15 AM 44.6 °F 40.7 °F 39.2 °F 81% 29.68 in 10.0 mi WNW 6.9 mph - N/A   Clear
6:35 AM 44.6 °F 40.2 °F 37.4 °F 76% 29.67 in 10.0 mi WNW 8.1 mph - N/A   Clear
7:15 AM 44.6 °F 40.7 °F 37.4 °F 76% 29.67 in 10.0 mi WNW 6.9 mph - N/A   Clear
7:35 AM 44.6 °F 40.7 °F 37.4 °F 76% 29.68 in 10.0 mi WNW 6.9 mph - N/A   Clear
7:55 AM 42.8 °F 39.3 °F 37.4 °F 81% 29.68 in 10.0 mi WNW 5.8 mph - N/A   Clear
8:35 AM 42.8 °F 39.3 °F 37.4 °F 81% 29.68 in 10.0 mi NW 5.8 mph - N/A   Clear
8:55 AM 42.8 °F 39.3 °F 37.4 °F 81% 29.69 in 10.0 mi WNW 5.8 mph - N/A   Clear
9:15 AM 44.6 °F 41.4 °F 37.4 °F 76% 29.69 in 10.0 mi WNW 5.8 mph - N/A   Clear
9:35 AM 46.4 °F 42.9 °F 37.4 °F 71% 29.69 in 10.0 mi WNW 6.9 mph - N/A   Clear
9:55 AM 48.2 °F - 37.4 °F 66% 29.69 in 10.0 mi NW 5.8 mph - N/A   Clear
10:15 AM 50.0 °F - 37.4 °F 62% 29.69 in 10.0 mi WNW 8.1 mph - N/A   Clear
10:35 AM 51.8 °F - 37.4 °F 58% 29.68 in 10.0 mi WNW 10.4 mph - N/A   Clear
10:55 AM 53.6 °F - 35.6 °F 51% 29.68 in 10.0 mi NW 6.9 mph 21.9 mph N/A   Clear
11:15 AM 55.4 °F - 35.6 °F 47% 29.67 in 10.0 mi NW 12.7 mph 21.9 mph N/A   Clear
11:35 AM 55.4 °F - 35.6 °F 47% 29.67 in 10.0 mi NW 13.8 mph 21.9 mph N/A   Scattered Clouds
11:55 AM 57.2 °F - 35.6 °F 44% 29.67 in 10.0 mi NNW 15.0 mph 24.2 mph N/A   Scattered Clouds
12:15 PM 57.2 °F - 33.8 °F 41% 29.67 in 10.0 mi NW 13.8 mph 23.0 mph N/A   Clear
12:35 PM 59.0 °F - 35.6 °F 42% 29.67 in 10.0 mi WNW 15.0 mph 24.2 mph N/A   Clear
12:55 PM 59.0 °F - 35.6 °F 42% 29.66 in 10.0 mi NNW 17.3 mph 21.9 mph N/A   Clear
1:15 PM 59.0 °F - 33.8 °F 39% 29.65 in 10.0 mi WNW 20.7 mph 27.6 mph N/A   Clear
1:35 PM 60.8 °F - 35.6 °F 39% 29.64 in 10.0 mi NW 13.8 mph 25.3 mph N/A   Clear
1:55 PM 60.8 °F - 33.8 °F 36% 29.63 in 10.0 mi WNW 18.4 mph 26.5 mph N/A   Clear
2:35 PM 62.6 °F - 35.6 °F 37% 29.62 in 10.0 mi NW 10.4 mph 19.6 mph N/A   Scattered Clouds
3:35 PM 60.8 °F - 35.6 °F 39% 29.59 in 10.0 mi WNW 12.7 mph 24.2 mph N/A   Scattered Clouds
3:55 PM 60.8 °F - 35.6 °F 39% 29.59 in 10.0 mi NW 10.4 mph 21.9 mph N/A   Scattered Clouds
4:15 PM 60.8 °F - 35.6 °F 39% 29.59 in 10.0 mi NW 13.8 mph 24.2 mph N/A   Scattered Clouds
4:35 PM 60.8 °F - 35.6 °F 39% 29.58 in 10.0 mi WNW 12.7 mph 19.6 mph N/A   Scattered Clouds
4:55 PM 59.0 °F - 35.6 °F 42% 29.58 in 10.0 mi WNW 10.4 mph 21.9 mph N/A   Scattered Clouds
5:15 PM 59.0 °F - 35.6 °F 42% 29.58 in 10.0 mi NW 13.8 mph 20.7 mph N/A   Clear
5:35 PM 59.0 °F - 35.6 °F 42% 29.58 in 10.0 mi WNW 15.0 mph 20.7 mph N/A   Scattered Clouds
5:55 PM 55.4 °F - 35.6 °F 47% 29.58 in 10.0 mi WNW 15.0 mph 21.9 mph N/A   Scattered Clouds
6:15 PM 55.4 °F - 35.6 °F 47% 29.58 in 10.0 mi NW 10.4 mph 18.4 mph N/A   Scattered Clouds
6:55 PM 53.6 °F - 33.8 °F 47% 29.59 in 10.0 mi NW 23.0 mph 27.6 mph N/A   Scattered Clouds
7:15 PM 51.8 °F - 33.8 °F 50% 29.59 in 10.0 mi NW 11.5 mph 19.6 mph N/A   Scattered Clouds
7:35 PM 51.8 °F - 33.8 °F 50% 29.59 in 10.0 mi WNW 11.5 mph 20.7 mph N/A   Clear
7:55 PM 51.8 °F - 33.8 °F 50% 29.59 in 10.0 mi WNW 18.4 mph 29.9 mph N/A   Clear
8:15 PM 51.8 °F - 33.8 °F 50% 29.59 in 10.0 mi WNW 13.8 mph 23.0 mph N/A   Clear
8:35 PM 51.8 °F - 32.0 °F 47% 29.59 in 10.0 mi WNW 13.8 mph 26.5 mph N/A   Clear
8:55 PM 51.8 °F - 32.0 °F 47% 29.59 in 10.0 mi WNW 13.8 mph 27.6 mph N/A   Clear
9:15 PM 50.0 °F - 32.0 °F 50% 29.59 in 10.0 mi NW 15.0 mph 27.6 mph N/A   Clear
9:35 PM 50.0 °F - 32.0 °F 50% 29.59 in 10.0 mi WNW 15.0 mph 29.9 mph N/A   Clear